OJAI

Amman/Queen Alia International

Airport
ICAO code
OJAI
Summary
ICAO Region
MID
ICAO Territory
Location

Amman/Queen International, Jordan,

Coordinates
31° 43' 21" N , 35° 59' 36" E
KCC
Metar
OJAI 282200Z 06006KT 5000 HZ NSC 06/M02 Q1023 NOSIG

Description

Principal international airport serving Amman.

Climatology

Dry-summer subtropical ”Mediterranean" climate (Köppen climate classification Csa) - characterized by hot, dry summers and mild winters. During the summer, subtropical high pressure cells dominate, making rainfall unlikely except for the occasional thunderstorm. In the winter, periodic storms bring rain.

Runways

Designator Length Width Surface Rops
08L/26R 3660 61 ASP Yes/Yes
08R/26L 3660 61 CON Yes/Yes

Airport map

Aerial View

SKYbrary Partners:

Safety knowledge contributed by: